START_TIME,STEP,MOV.,A46,t_acc.,A13,t_acc.,M47,t_acc.,A17,t_acc.,A28,t_acc.,M38,t_acc.
1979-07-20 00:00:25.310 ,0,0,,0,2.,4.8,0.,4.8,,0,0.,4.8,0.,4.8
1979-07-20 00:00:30.110 ,0,0,,0,1.,4.8,0.,4.8,,0,0.,4.8,0.,4.8
1979-07-20 00:00:34.910 ,0,0,,0,0.,4.8,0.,4.8,,0,0.,4.8,0.,4.8
1979-07-20 00:00:39.710 ,0,0,,0,0.,4.8,0.,4.8,,0,0.,4.8,0.,4.8
1979-07-20 00:00:44.510 ,0,0,,0,0.,4.8,0.,4.8,,0,0.,4.8,0.,4.8
1979-07-20 00:00:49.310 ,1,0,,0,0.,4.8,0.,4.8,,0,0.,4.8,0.,4.8
1979-07-20 00:00:54.110 ,1,0,,0,0.,4.8,0.,4.8,,0,0.,4.8,1.,4.8
1979-07-20 00:00:58.910 ,1,0,,0,1.,4.8,0.,4.8,,0,0.,4.8,0.,4.8
1979-07-20 00:01:03.710 ,1,0,,0,1.,4.8,0.,4.8,,0,0.,4.8,0.,4.8
1979-07-20 00:01:08.510 ,1,0,,0,4.,4.8,0.,4.8,,0,0.,4.8,0.,4.8
1979-07-20 00:01:13.310 ,1,0,,0,1.,4.8,0.,4.8,,0,0.,4.8,0.,4.8
1979-07-20 00:01:18.110 ,1,0,,0,1.,4.8,0.,4.8,,0,0.,4.8,0.,4.8
1979-07-20 00:01:22.910 ,1,0,,0,2.,4.8,0.,4.8,,0,0.,4.8,0.,4.8
1979-07-20 00:01:27.710 ,1,0,,0,0.,4.8,0.,4.8,,0,0.,4.8,0.,4.8
1979-07-20 00:01:32.510 ,1,0,,0,0.,4.8,0.,4.8,,0,0.,4.8,0.,4.8
1979-07-20 00:01:37.310 ,2,0,,0,0.,4.8,0.,4.8,,0,0.,4.8,0.,4.8
1979-07-20 00:01:42.110 ,2,0,,0,0.,4.8,0.,4.8,,0,2.,4.8,1.,4.8
1979-07-20 00:01:46.910 ,2,0,,0,0.,4.8,0.,4.8,,0,0.,4.8,2.,4.8
1979-07-20 00:01:51.710 ,2,0,,0,4.,4.8,0.,4.8,,0,0.,4.8,1.,4.8
1979-07-20 00:01:56.510 ,2,0,,0,4.,4.8,1.,4.8,,0,0.,4.8,1.,4.8
1979-07-20 00:02:01.310 ,2,0,,0,3.,4.8,2.,4.8,,0,0.,4.8,1.,4.8
1979-07-20 00:02:06.110 ,2,0,,0,4.,4.8,0.,4.8,,0,0.,4.8,1.,4.8
1979-07-20 00:02:10.910 ,2,0,,0,4.,4.8,0.,4.8,,0,0.,4.8,0.,4.8
1979-07-20 00:02:15.710 ,2,0,,0,0.,4.8,0.,4.8,,0,0.,4.8,1.,4.8
1979-07-20 00:02:20.510 ,2,0,,0,0.,4.8,0.,4.8,,0,0.,4.8,1.,4.8
1979-07-20 00:02:25.310 ,3,0,,0,0.,4.8,0.,4.8,,0,0.,4.8,2.,4.8
1979-07-20 00:02:30.110 ,3,0,,0,0.,4.8,0.,4.8,,0,0.,4.8,6.,4.8
1979-07-20 00:02:34.910 ,3,0,,0,6.,4.8,1.,4.8,,0,0.,4.8,12.,4.8
1979-07-20 00:02:39.710 ,3,0,,0,37.,4.8,6.,4.8,,0,0.,4.8,13.,4.8
1979-07-20 00:02:44.510 ,3,0,,0,30.,4.8,3.,4.8,,0,0.,4.8,13.,4.8
1979-07-20 00:02:49.310 ,3,0,,0,42.,4.8,5.,4.8,,0,0.,4.8,19.,4.8
1979-07-20 00:02:54.110 ,3,0,,0,23.,4.8,1.,4.8,,0,0.,4.8,10.,4.8
1979-07-20 00:02:58.910 ,3,0,,0,31.,4.8,1.,4.8,,0,0.,4.8,14.,4.8
1979-07-20 00:03:03.710 ,3,0,,0,0.,4.8,0.,4.8,,0,0.,4.8,9.,4.8
1979-07-20 00:03:08.510 ,3,0,,0,0.,4.8,0.,4.8,,0,0.,4.8,10.,4.8
1979-07-20 00:03:13.310 ,4,0,,0,0.,4.8,0.,4.8,,0,0.,4.8,22.,4.8
1979-07-20 00:03:18.110 ,4,0,,0,0.,4.8,0.,4.8,,0,0.,4.8,10.,4.8
1979-07-20 00:03:22.910 ,4,0,,0,0.,4.8,0.,4.8,,0,0.,4.8,0.,4.8
1979-07-20 00:03:27.710 ,4,0,,0,2.,4.8,0.,4.8,,0,0.,4.8,0.,4.8
1979-07-20 00:03:32.510 ,4,0,,0,4.,4.8,0.,4.8,,0,0.,4.8,0.,4.8
1979-07-20 00:03:37.310 ,4,0,,0,4.,4.8,0.,4.8,,0,0.,4.8,0.,4.8
1979-07-20 00:03:42.110 ,4,0,,0,5.,4.8,0.,4.8,,0,0.,4.8,0.,4.8
1979-07-20 00:03:46.910 ,4,0,,0,2.,4.8,0.,4.8,,0,0.,4.8,0.,4.8
1979-07-20 00:03:51.710 ,4,0,,0,0.,4.8,0.,4.8,,0,0.,4.8,0.,4.8
1979-07-20 00:03:56.510 ,4,0,,0,0.,4.8,0.,4.8,,0,0.,4.8,0.,4.8
1979-07-20 00:04:01.310 ,5,0,,0,0.,4.8,1.,4.8,,0,0.,4.8,0.,4.8
1979-07-20 00:04:06.110 ,5,0,,0,1.,4.8,0.,4.8,,0,0.,4.8,0.,4.8
1979-07-20 00:04:10.910 ,5,0,,0,1.,4.8,0.,4.8,,0,0.,4.8,0.,4.8
1979-07-20 00:04:15.710 ,5,0,,0,2.,4.8,0.,4.8,,0,0.,4.8,1.,4.8
1979-07-20 00:04:20.510 ,5,0,,0,2.,4.8,0.,4.8,,0,0.,4.8,1.,4.8
1979-07-20 00:04:25.310 ,5,0,,0,5.,4.8,0.,4.8,,0,0.,4.8,0.,4.8
1979-07-20 00:04:30.110 ,5,0,,0,1.,4.8,0.,4.8,,0,0.,4.8,0.,4.8
1979-07-20 00:04:34.910 ,5,0,,0,3.,4.8,0.,4.8,,0,0.,4.8,0.,4.8
1979-07-20 00:04:39.710 ,5,0,,0,0.,4.8,0.,4.8,,0,0.,4.8,0.,4.8
1979-07-20 00:04:44.510 ,5,0,,0,0.,4.8,0.,4.8,,0,0.,4.8,0.,4.8
1979-07-20 00:04:49.310 ,6,0,,0,0.,4.8,0.,4.8,,0,0.,4.8,0.,4.8
1979-07-20 00:04:54.110 ,6,0,,0,0.,4.8,0.,4.8,,0,0.,4.8,0.,4.8
1979-07-20 00:04:58.910 ,6,0,,0,0.,4.8,0.,4.8,,0,0.,4.8,0.,4.8
1979-07-20 00:05:03.710 ,6,0,,0,5.,4.8,0.,4.8,,0,0.,4.8,0.,4.8
1979-07-20 00:05:08.510 ,6,0,,0,4.,4.8,0.,4.8,,0,0.,4.8,0.,4.8
1979-07-20 00:05:13.310 ,6,0,,0,6.,4.8,0.,4.8,,0,0.,4.8,0.,4.8
1979-07-20 00:05:18.110 ,6,0,,0,2.,4.8,0.,4.8,,0,0.,4.8,0.,4.8
1979-07-20 00:05:22.910 ,6,0,,0,2.,4.8,0.,4.8,,0,0.,4.8,0.,4.8
1979-07-20 00:05:27.710 ,6,0,,0,0.,4.8,0.,4.8,,0,0.,4.8,0.,4.8
1979-07-20 00:05:32.510 ,6,0,,0,0.,4.8,0.,4.8,,0,0.,4.8,0.,4.8
1979-07-20 00:05:37.310 ,7,0,,0,0.,4.8,0.,4.8,,0,0.,4.8,0.,4.8
1979-07-20 00:05:42.110 ,7,0,,0,0.,4.8,1.,4.8,,0,0.,4.8,0.,4.8
1979-07-20 00:05:46.910 ,7,0,,0,4.,4.8,0.,4.8,,0,0.,4.8,0.,4.8
1979-07-20 00:05:51.710 ,7,0,,0,13.,4.8,0.,4.8,,0,0.,4.8,0.,4.8
1979-07-20 00:05:56.510 ,7,0,,0,20.,4.8,0.,4.8,,0,0.,4.8,0.,4.8
1979-07-20 00:06:01.310 ,7,0,,0,13.,4.8,0.,4.8,,0,0.,4.8,0.,4.8
1979-07-20 00:06:06.110 ,7,0,,0,12.,4.8,0.,4.8,,0,0.,4.8,0.,4.8
1979-07-20 00:06:10.910 ,7,0,,0,8.,4.8,0.,4.8,,0,0.,4.8,0.,4.8
1979-07-20 00:06:15.710 ,7,0,,0,0.,4.8,1.,4.8,,0,0.,4.8,0.,4.8
1979-07-20 00:06:20.510 ,7,0,,0,2.,4.8,0.,4.8,,0,0.,4.8,0.,4.8
1979-07-20 00:06:25.310 ,7,0,,0,0.,4.8,0.,4.8,,0,0.,4.8,0.,4.8
1979-07-20 00:06:30.110 ,7,0,,0,0.,4.8,0.,4.8,,0,0.,4.8,0.,4.8
1979-07-20 00:06:34.910 ,7,0,,0,1.,4.8,0.,4.8,,0,0.,4.8,0.,4.8
1979-07-20 00:06:39.710 ,7,0,,0,11.,4.8,0.,4.8,,0,0.,4.8,0.,4.8
1979-07-20 00:06:44.510 ,7,0,,0,8.,4.8,0.,4.8,,0,0.,4.8,0.,4.8
1979-07-20 00:06:49.310 ,7,0,,0,10.,4.8,0.,4.8,,0,0.,4.8,0.,4.8
1979-07-20 00:06:54.110 ,7,0,,0,20.,4.8,0.,4.8,,0,0.,4.8,0.,4.8
1979-07-20 00:06:58.910 ,7,0,,0,14.,4.8,0.,4.8,,0,0.,4.8,0.,4.8
1979-07-20 00:07:03.710 ,7,0,,0,0.,4.8,0.,4.8,,0,0.,4.8,0.,4.8
1979-07-20 00:07:08.510 ,7,0,,0,0.,4.8,0.,4.8,,0,0.,4.8,0.,4.8
1979-07-20 00:07:13.310 ,6,0,,0,1.,4.8,0.,4.8,,0,0.,4.8,0.,4.8
1979-07-20 00:07:18.110 ,6,0,,0,0.,4.8,0.,4.8,,0,0.,4.8,0.,4.8
1979-07-20 00:07:22.910 ,6,0,,0,2.,4.8,0.,4.8,,0,0.,4.8,0.,4.8
1979-07-20 00:07:27.710 ,6,0,,0,4.,4.8,0.,4.8,,0,0.,4.8,0.,4.8
1979-07-20 00:07:32.510 ,6,0,,0,8.,4.8,0.,4.8,,0,0.,4.8,0.,4.8
1979-07-20 00:07:37.310 ,6,0,,0,3.,4.8,0.,4.8,,0,0.,4.8,0.,4.8
1979-07-20 00:07:42.110 ,6,0,,0,2.,4.8,0.,4.8,,0,0.,4.8,0.,4.8
1979-07-20 00:07:46.910 ,6,0,,0,1.,4.8,0.,4.8,,0,0.,4.8,0.,4.8
1979-07-20 00:07:51.710 ,6,0,,0,0.,4.8,0.,4.8,,0,0.,4.8,1.,4.8
1979-07-20 00:07:56.510 ,6,0,,0,1.,4.8,0.,4.8,,0,0.,4.8,0.,4.8
1979-07-20 00:08:01.310 ,5,0,,0,0.,4.8,0.,4.8,,0,0.,4.8,0.,4.8
1979-07-20 00:08:06.110 ,5,0,,0,0.,4.8,0.,4.8,,0,0.,4.8,0.,4.8
1979-07-20 00:08:10.910 ,5,0,,0,0.,4.8,0.,4.8,,0,0.,4.8,0.,4.8
1979-07-20 00:08:15.710 ,5,0,,0,2.,4.8,0.,4.8,,0,0.,4.8,0.,4.8
1979-07-20 00:08:20.510 ,5,0,,0,3.,4.8,0.,4.8,,0,0.,4.8,0.,4.8
1979-07-20 00:08:25.310 ,5,0,,0,4.,4.8,0.,4.8,,0,0.,4.8,0.,4.8
1979-07-20 00:08:30.110 ,5,0,,0,3.,4.8,0.,4.8,,0,0.,4.8,0.,4.8
1979-07-20 00:08:34.910 ,5,0,,0,4.,4.8,0.,4.8,,0,0.,4.8,0.,4.8
1979-07-20 00:08:39.710 ,5,0,,0,0.,4.8,0.,4.8,,0,0.,4.8,0.,4.8
1979-07-20 00:08:44.510 ,5,0,,0,0.,4.8,0.,4.8,,0,0.,4.8,0.,4.8
1979-07-20 00:08:49.310 ,4,0,,0,0.,4.8,0.,4.8,,0,0.,4.8,0.,4.8
1979-07-20 00:08:54.110 ,4,0,,0,0.,4.8,0.,4.8,,0,0.,4.8,0.,4.8
1979-07-20 00:08:58.910 ,4,0,,0,2.,4.8,0.,4.8,,0,0.,4.8,0.,4.8
1979-07-20 00:09:03.710 ,4,0,,0,4.,4.8,0.,4.8,,0,0.,4.8,0.,4.8
1979-07-20 00:09:08.510 ,4,0,,0,2.,4.8,0.,4.8,,0,0.,4.8,0.,4.8
1979-07-20 00:09:13.310 ,4,0,,0,4.,4.8,0.,4.8,,0,0.,4.8,0.,4.8
1979-07-20 00:09:18.110 ,4,0,,0,5.,4.8,1.,4.8,,0,0.,4.8,1.,4.8
1979-07-20 00:09:22.910 ,4,0,,0,1.,4.8,0.,4.8,,0,0.,4.8,0.,4.8
1979-07-20 00:09:27.710 ,4,0,,0,0.,4.8,1.,4.8,,0,0.,4.8,0.,4.8
1979-07-20 00:09:32.510 ,4,0,,0,1.,4.8,0.,4.8,,0,0.,4.8,1.,4.8
1979-07-20 00:09:37.310 ,3,0,,0,0.,4.8,0.,4.8,,0,0.,4.8,0.,4.8
1979-07-20 00:09:42.110 ,3,0,,0,0.,4.8,0.,4.8,,0,0.,4.8,3.,4.8
1979-07-20 00:09:46.910 ,3,0,,0,5.,4.8,0.,4.8,,0,0.,4.8,5.,4.8
1979-07-20 00:09:51.710 ,3,0,,0,22.,4.8,4.,4.8,,0,0.,4.8,3.,4.8
1979-07-20 00:09:56.510 ,3,0,,0,17.,4.8,2.,4.8,,0,0.,4.8,4.,4.8
1979-07-20 00:10:01.310 ,3,0,,0,15.,4.8,0.,4.8,,0,0.,4.8,2.,4.8
1979-07-20 00:10:06.110 ,3,0,,0,18.,4.8,2.,4.8,,0,0.,4.8,8.,4.8
1979-07-20 00:10:10.910 ,3,0,,0,9.,4.8,1.,4.8,,0,1.,4.8,3.,4.8
1979-07-20 00:10:15.710 ,3,0,,0,0.,4.8,0.,4.8,,0,0.,4.8,8.,4.8
1979-07-20 00:10:20.510 ,3,0,,0,0.,4.8,0.,4.8,,0,0.,4.8,9.,4.8
1979-07-20 00:10:25.310 ,2,0,,0,0.,4.8,0.,4.8,,0,0.,4.8,7.,4.8
1979-07-20 00:10:30.110 ,2,0,,0,0.,4.8,0.,4.8,,0,0.,4.8,7.,4.8
1979-07-20 00:10:34.910 ,2,0,,0,1.,4.8,0.,4.8,,0,0.,4.8,2.,4.8
1979-07-20 00:10:39.710 ,2,0,,0,3.,4.8,0.,4.8,,0,0.,4.8,1.,4.8
1979-07-20 00:10:44.510 ,2,0,,0,6.,4.8,0.,4.8,,0,0.,4.8,0.,4.8
1979-07-20 00:10:49.310 ,2,0,,0,10.,4.8,1.,4.8,,0,0.,4.8,2.,4.8
1979-07-20 00:10:54.110 ,2,0,,0,7.,4.8,2.,4.8,,0,0.,4.8,0.,4.8
1979-07-20 00:10:58.910 ,2,0,,0,7.,4.8,2.,4.8,,0,0.,4.8,1.,4.8
1979-07-20 00:11:03.710 ,2,0,,0,0.,4.8,0.,4.8,,0,0.,4.8,2.,4.8
1979-07-20 00:11:08.510 ,2,0,,0,0.,4.8,0.,4.8,,0,0.,4.8,2.,4.8
1979-07-20 00:11:13.310 ,1,0,,0,0.,4.8,0.,4.8,,0,0.,4.8,0.,4.8
1979-07-20 00:11:18.110 ,1,0,,0,0.,4.8,0.,4.8,,0,0.,4.8,0.,4.8
1979-07-20 00:11:22.910 ,1,0,,0,0.,4.8,0.,4.8,,0,0.,4.8,0.,4.8
1979-07-20 00:11:27.710 ,1,0,,0,2.,4.8,0.,4.8,,0,0.,4.8,0.,4.8
1979-07-20 00:11:32.510 ,1,0,,0,4.,4.8,0.,4.8,,0,0.,4.8,0.,4.8
1979-07-20 00:11:37.310 ,1,0,,0,1.,4.8,0.,4.8,,0,1.,4.8,0.,4.8
1979-07-20 00:11:42.110 ,1,0,,0,3.,4.8,0.,4.8,,0,0.,4.8,0.,4.8
1979-07-20 00:11:46.910 ,1,0,,0,3.,4.8,0.,4.8,,0,0.,4.8,0.,4.8
1979-07-20 00:11:51.710 ,1,0,,0,0.,4.8,0.,4.8,,0,0.,4.8,0.,4.8
1979-07-20 00:11:56.510 ,1,0,,0,0.,4.8,0.,4.8,,0,0.,4.8,0.,4.8
1979-07-20 00:12:01.310 ,0,0,,0,0.,4.8,0.,4.8,,0,0.,4.8,0.,4.8
1979-07-20 00:12:06.110 ,0,0,,0,0.,4.8,0.,4.8,,0,0.,4.8,0.,4.8
1979-07-20 00:12:10.910 ,0,0,,0,0.,4.8,1.,4.8,,0,0.,4.8,0.,4.8
1979-07-20 00:12:15.710 ,0,0,,0,1.,4.8,0.,4.8,,0,0.,4.8,0.,4.8
1979-07-20 00:12:20.510 ,0,0,,0,2.,4.8,0.,4.8,,0,0.,4.8,0.,4.8
1979-07-20 00:12:25.310 ,0,0,,0,1.,4.8,0.,4.8,,0,0.,4.8,0.,4.8
1979-07-20 00:12:30.110 ,0,0,,0,3.,4.8,0.,4.8,,0,0.,4.8,0.,4.8
1979-07-20 00:12:34.910 ,0,0,,0,2.,4.8,0.,4.8,,0,0.,4.8,0.,4.8
1979-07-20 00:12:39.710 ,0,0,,0,0.,4.8,0.,4.8,,0,0.,4.8,0.,4.8
1979-07-20 00:12:44.510 ,0,0,,0,0.,4.8,0.,4.8,,0,0.,4.8,0.,4.8
1979-07-20 00:12:49.310 ,0,0,,0,0.,4.8,0.,4.8,,0,0.,4.8,0.,4.8
1979-07-20 00:12:54.110 ,0,0,,0,1.,4.8,0.,4.8,,0,0.,4.8,0.,4.8
1979-07-20 00:12:58.910 ,0,0,,0,0.,4.8,0.,4.8,,0,0.,4.8,0.,4.8
1979-07-20 00:13:03.710 ,0,0,,0,0.,4.8,0.,4.8,,0,0.,4.8,0.,4.8
1979-07-20 00:13:08.510 ,0,0,,0,2.,4.8,0.,4.8,,0,0.,4.8,0.,4.8
1979-07-20 00:13:13.310 ,0,0,,0,1.,4.8,0.,4.8,,0,0.,4.8,0.,4.8
1979-07-20 00:13:18.110 ,0,0,,0,2.,4.8,0.,4.8,,0,0.,4.8,0.,4.8
1979-07-20 00:13:22.910 ,0,0,,0,4.,4.8,0.,4.8,,0,0.,4.8,0.,4.8
1979-07-20 00:13:27.710 ,0,0,,0,0.,4.8,0.,4.8,,0,0.,4.8,0.,4.8
1979-07-20 00:13:32.510 ,0,0,,0,0.,4.8,0.,4.8,,0,0.,4.8,0.,4.8
1979-07-20 00:13:37.310 ,1,0,,0,0.,4.8,0.,4.8,,0,0.,4.8,0.,4.8
1979-07-20 00:13:42.110 ,1,0,,0,0.,4.8,0.,4.8,,0,0.,4.8,0.,4.8
1979-07-20 00:13:46.910 ,1,0,,0,0.,4.8,0.,4.8,,0,0.,4.8,0.,4.8
1979-07-20 00:13:51.710 ,1,0,,0,4.,4.8,0.,4.8,,0,0.,4.8,0.,4.8
1979-07-20 00:13:56.510 ,1,0,,0,1.,4.8,0.,4.8,,0,0.,4.8,0.,4.8
1979-07-20 00:14:01.310 ,1,0,,0,2.,4.8,0.,4.8,,0,0.,4.8,0.,4.8
1979-07-20 00:14:06.110 ,1,0,,0,3.,4.8,0.,4.8,,0,0.,4.8,1.,4.8
1979-07-20 00:14:10.910 ,1,0,,0,2.,4.8,0.,4.8,,0,0.,4.8,0.,4.8
1979-07-20 00:14:15.710 ,1,0,,0,0.,4.8,0.,4.8,,0,0.,4.8,0.,4.8
1979-07-20 00:14:20.510 ,1,0,,0,0.,4.8,0.,4.8,,0,0.,4.8,0.,4.8
1979-07-20 00:14:25.310 ,2,0,,0,0.,4.8,0.,4.8,,0,0.,4.8,0.,4.8
1979-07-20 00:14:30.110 ,2,0,,0,0.,4.8,0.,4.8,,0,0.,4.8,1.,4.8
1979-07-20 00:14:34.910 ,2,0,,0,0.,4.8,0.,4.8,,0,0.,4.8,0.,4.8
1979-07-20 00:14:39.710 ,2,0,,0,4.,4.8,0.,4.8,,0,0.,4.8,0.,4.8
1979-07-20 00:14:44.510 ,2,0,,0,9.,4.8,2.,4.8,,0,0.,4.8,0.,4.8
1979-07-20 00:14:49.310 ,2,0,,0,3.,4.8,0.,4.8,,0,0.,4.8,0.,4.8
1979-07-20 00:14:54.110 ,2,0,,0,8.,4.8,2.,4.8,,0,0.,4.8,1.,4.8
1979-07-20 00:14:58.910 ,2,0,,0,3.,4.8,1.,4.8,,0,0.,4.8,1.,4.8
1979-07-20 00:15:03.710 ,2,0,,0,0.,4.8,0.,4.8,,0,0.,4.8,0.,4.8
1979-07-20 00:15:08.510 ,2,0,,0,0.,4.8,0.,4.8,,0,0.,4.8,0.,4.8
1979-07-20 00:15:13.310 ,3,0,,0,0.,4.8,0.,4.8,,0,0.,4.8,0.,4.8
1979-07-20 00:15:18.110 ,3,0,,0,0.,4.8,0.,4.8,,0,0.,4.8,2.,4.8
1979-07-20 00:15:22.910 ,3,0,,0,4.,4.8,3.,4.8,,0,0.,4.8,2.,4.8
1979-07-20 00:15:27.710 ,3,0,,0,21.,4.8,3.,4.8,,0,0.,4.8,1.,4.8
1979-07-20 00:15:32.510 ,3,0,,0,25.,4.8,3.,4.8,,0,0.,4.8,5.,4.8
1979-07-20 00:15:37.310 ,3,0,,0,22.,4.8,3.,4.8,,0,0.,4.8,3.,4.8
1979-07-20 00:15:42.110 ,3,0,,0,23.,4.8,3.,4.8,,0,0.,4.8,8.,4.8
1979-07-20 00:15:46.910 ,3,0,,0,19.,4.8,4.,4.8,,0,0.,4.8,4.,4.8
1979-07-20 00:15:51.710 ,3,0,,0,0.,4.8,0.,4.8,,0,0.,4.8,6.,4.8
1979-07-20 00:15:56.510 ,3,0,,0,0.,4.8,0.,4.8,,0,0.,4.8,6.,4.8
1979-07-20 00:16:01.310 ,4,0,,0,0.,4.8,0.,4.8,,0,0.,4.8,3.,4.8
1979-07-20 00:16:06.110 ,4,0,,0,0.,4.8,0.,4.8,,0,0.,4.8,3.,4.8
1979-07-20 00:16:10.910 ,4,0,,0,0.,4.8,0.,4.8,,0,0.,4.8,0.,4.8
1979-07-20 00:16:15.710 ,4,0,,0,4.,4.8,0.,4.8,,0,0.,4.8,0.,4.8
1979-07-20 00:16:20.510 ,4,0,,0,3.,4.8,0.,4.8,,0,0.,4.8,0.,4.8
1979-07-20 00:16:25.310 ,4,0,,0,2.,4.8,0.,4.8,,0,0.,4.8,0.,4.8
1979-07-20 00:16:30.110 ,4,0,,0,3.,4.8,0.,4.8,,0,0.,4.8,0.,4.8
1979-07-20 00:16:34.910 ,4,0,,0,1.,4.8,0.,4.8,,0,0.,4.8,0.,4.8
1979-07-20 00:16:39.710 ,4,0,,0,0.,4.8,1.,4.8,,0,0.,4.8,0.,4.8
1979-07-20 00:16:44.510 ,4,0,,0,0.,4.8,0.,4.8,,0,0.,4.8,0.,4.8
1979-07-20 00:16:49.310 ,5,0,,0,0.,4.8,0.,4.8,,0,0.,4.8,0.,4.8
1979-07-20 00:16:54.110 ,5,0,,0,0.,4.8,0.,4.8,,0,0.,4.8,0.,4.8
1979-07-20 00:16:58.910 ,5,0,,0,0.,4.8,0.,4.8,,0,0.,4.8,0.,4.8
1979-07-20 00:17:03.710 ,5,0,,0,7.,4.8,0.,4.8,,0,0.,4.8,0.,4.8
1979-07-20 00:17:08.510 ,5,0,,0,2.,4.8,0.,4.8,,0,0.,4.8,0.,4.8
1979-07-20 00:17:13.310 ,5,0,,0,5.,4.8,0.,4.8,,0,0.,4.8,0.,4.8
1979-07-20 00:17:18.110 ,5,0,,0,4.,4.8,0.,4.8,,0,0.,4.8,0.,4.8
1979-07-20 00:17:22.910 ,5,0,,0,3.,4.8,0.,4.8,,0,0.,4.8,0.,4.8
1979-07-20 00:17:27.710 ,5,0,,0,0.,4.8,0.,4.8,,0,0.,4.8,1.,4.8
1979-07-20 00:17:32.510 ,5,0,,0,0.,4.8,1.,4.8,,0,0.,4.8,0.,4.8
1979-07-20 00:17:37.310 ,6,0,,0,0.,4.8,0.,4.8,,0,0.,4.8,0.,4.8
1979-07-20 00:17:42.110 ,6,0,,0,0.,4.8,0.,4.8,,0,0.,4.8,0.,4.8
1979-07-20 00:17:46.910 ,6,0,,0,2.,4.8,0.,4.8,,0,0.,4.8,0.,4.8
1979-07-20 00:17:51.710 ,6,0,,0,4.,4.8,0.,4.8,,0,0.,4.8,0.,4.8
1979-07-20 00:17:56.510 ,6,0,,0,2.,4.8,0.,4.8,,0,0.,4.8,0.,4.8
1979-07-20 00:18:01.310 ,6,0,,0,1.,4.8,0.,4.8,,0,0.,4.8,0.,4.8
1979-07-20 00:18:06.110 ,6,0,,0,4.,4.8,0.,4.8,,0,0.,4.8,0.,4.8
1979-07-20 00:18:10.910 ,6,0,,0,2.,4.8,0.,4.8,,0,0.,4.8,0.,4.8
1979-07-20 00:18:15.710 ,6,0,,0,1.,4.8,0.,4.8,,0,0.,4.8,0.,4.8
1979-07-20 00:18:20.510 ,6,0,,0,0.,4.8,0.,4.8,,0,0.,4.8,0.,4.8
1979-07-20 00:18:25.310 ,7,0,,0,0.,4.8,0.,4.8,,0,1.,4.8,0.,4.8
1979-07-20 00:18:30.110 ,7,0,,0,0.,4.8,0.,4.8,,0,0.,4.8,0.,4.8
1979-07-20 00:18:34.910 ,7,0,,0,2.,4.8,0.,4.8,,0,0.,4.8,0.,4.8
1979-07-20 00:18:39.710 ,7,0,,0,13.,4.8,0.,4.8,,0,0.,4.8,0.,4.8
1979-07-20 00:18:44.510 ,7,0,,0,12.,4.8,0.,4.8,,0,0.,4.8,0.,4.8
1979-07-20 00:18:49.310 ,7,0,,0,16.,4.8,0.,4.8,,0,0.,4.8,0.,4.8
1979-07-20 00:18:54.110 ,7,0,,0,12.,4.8,0.,4.8,,0,0.,4.8,0.,4.8
1979-07-20 00:18:58.910 ,7,0,,0,12.,4.8,0.,4.8,,0,0.,4.8,0.,4.8
1979-07-20 00:19:03.710 ,7,0,,0,0.,4.8,0.,4.8,,0,0.,4.8,0.,4.8
1979-07-20 00:19:08.510 ,7,0,,0,1.,4.8,0.,4.8,,0,0.,4.8,0.,4.8
1979-07-20 00:19:13.310 ,3,1,,0,0.,4.8,0.,4.8,,0,0.,4.8,0.,4.8
1979-07-20 00:19:18.110 ,3,1,,0,0.,4.8,0.,4.8,,0,0.,4.8,0.,4.8
1979-07-20 00:19:22.910 ,3,1,,0,1.,4.8,0.,4.8,,0,0.,4.8,0.,4.8
1979-07-20 00:19:27.710 ,3,1,,0,2.,4.8,0.,4.8,,0,0.,4.8,0.,4.8
1979-07-20 00:19:32.510 ,3,1,,0,14.,4.8,3.,4.8,,0,0.,4.8,2.,4.8
1979-07-20 00:19:37.310 ,0,1,,0,10.,4.8,4.,4.8,,0,0.,4.8,4.,4.8
1979-07-20 00:19:42.110 ,0,1,,0,5.,4.8,2.,4.8,,0,0.,4.8,0.,4.8
1979-07-20 00:19:46.910 ,0,1,,0,2.,4.8,0.,4.8,,0,0.,4.8,0.,4.8
1979-07-20 00:19:51.710 ,0,1,,0,0.,4.8,0.,4.8,,0,0.,4.8,0.,4.8
1979-07-20 00:19:56.510 ,0,1,,0,0.,4.8,0.,4.8,,0,0.,4.8,0.,4.8
1979-07-20 00:20:01.310 ,4,1,,0,0.,4.8,0.,4.8,,0,1.,4.8,1.,4.8
1979-07-20 00:20:06.110 ,4,1,,0,0.,4.8,0.,4.8,,0,0.,4.8,2.,4.8
1979-07-20 00:20:10.910 ,4,1,,0,0.,4.8,0.,4.8,,0,0.,4.8,1.,4.8
1979-07-20 00:20:15.710 ,4,1,,0,19.,4.8,3.,4.8,,0,0.,4.8,3.,4.8
1979-07-20 00:20:20.510 ,4,1,,0,7.,4.8,0.,4.8,,0,0.,4.8,0.,4.8
1979-07-20 00:20:25.310 ,7,1,,0,5.,4.8,0.,4.8,,0,0.,4.8,0.,4.8
1979-07-20 00:20:30.110 ,7,1,,0,1.,4.8,0.,4.8,,0,0.,4.8,0.,4.8
1979-07-20 00:20:34.910 ,7,1,,0,5.,4.8,0.,4.8,,0,0.,4.8,0.,4.8
1979-07-20 00:20:39.710 ,7,1,,0,0.,4.8,0.,4.8,,0,0.,4.8,0.,4.8
1979-07-20 00:20:44.510 ,7,1,,0,1.,4.8,0.,4.8,,0,0.,4.8,0.,4.8
1979-07-20 00:20:49.310 ,3,1,,0,0.,4.8,0.,4.8,,0,0.,4.8,0.,4.8
1979-07-20 00:20:54.110 ,3,1,,0,0.,4.8,0.,4.8,,0,0.,4.8,0.,4.8
1979-07-20 00:20:58.910 ,3,1,,0,0.,4.8,0.,4.8,,0,0.,4.8,0.,4.8
1979-07-20 00:21:03.710 ,3,1,,0,2.,4.8,0.,4.8,,0,0.,4.8,0.,4.8
1979-07-20 00:21:08.510 ,3,1,,0,19.,4.8,3.,4.8,,0,0.,4.8,5.,4.8
1979-07-20 00:21:13.310 ,0,1,,0,6.,4.8,1.,4.8,,0,0.,4.8,2.,4.8
1979-07-20 00:21:18.110 ,0,1,,0,8.,4.8,0.,4.8,,0,0.,4.8,1.,4.8
1979-07-20 00:21:22.910 ,0,1,,0,2.,4.8,0.,4.8,,0,0.,4.8,0.,4.8
1979-07-20 00:21:27.710 ,0,1,,0,0.,4.8,0.,4.8,,0,0.,4.8,0.,4.8
1979-07-20 00:21:32.510 ,0,1,,0,0.,4.8,0.,4.8,,0,1.,4.8,0.,4.8
1979-07-20 00:21:37.310 ,4,1,,0,0.,4.8,1.,4.8,,0,0.,4.8,0.,4.8
1979-07-20 00:21:42.110 ,4,1,,0,0.,4.8,0.,4.8,,0,0.,4.8,0.,4.8
1979-07-20 00:21:46.910 ,4,1,,0,1.,4.8,0.,4.8,,0,0.,4.8,1.,4.8
1979-07-20 00:21:51.710 ,4,1,,0,14.,4.8,2.,4.8,,0,0.,4.8,7.,4.8
1979-07-20 00:21:56.510 ,4,1,,0,6.,4.8,1.,4.8,,0,0.,4.8,2.,4.8
1979-07-20 00:22:01.310 ,7,1,,0,5.,4.8,0.,4.8,,0,0.,4.8,0.,4.8
1979-07-20 00:22:06.110 ,7,1,,0,4.,4.8,0.,4.8,,0,0.,4.8,0.,4.8
1979-07-20 00:22:10.910 ,7,1,,0,2.,4.8,0.,4.8,,0,0.,4.8,0.,4.8
1979-07-20 00:22:15.710 ,7,1,,0,0.,4.8,0.,4.8,,0,0.,4.8,0.,4.8
1979-07-20 00:22:20.510 ,7,1,,0,0.,4.8,0.,4.8,,0,0.,4.8,0.,4.8
1979-07-20 00:22:25.310 ,3,1,,0,0.,4.8,0.,4.8,,0,0.,4.8,0.,4.8
1979-07-20 00:22:30.110 ,3,1,,0,0.,4.8,0.,4.8,,0,0.,4.8,0.,4.8
1979-07-20 00:22:34.910 ,3,1,,0,1.,4.8,0.,4.8,,0,0.,4.8,0.,4.8
1979-07-20 00:22:39.710 ,3,1,,0,2.,4.8,0.,4.8,,0,0.,4.8,0.,4.8
1979-07-20 00:22:44.510 ,3,1,,0,16.,4.8,2.,4.8,,0,0.,4.8,3.,4.8
1979-07-20 00:22:49.310 ,0,1,,0,7.,4.8,2.,4.8,,0,0.,4.8,2.,4.8
1979-07-20 00:22:54.110 ,0,1,,0,4.,4.8,0.,4.8,,0,0.,4.8,0.,4.8
1979-07-20 00:22:58.910 ,0,1,,0,1.,4.8,0.,4.8,,0,0.,4.8,0.,4.8
1979-07-20 00:23:03.710 ,0,1,,0,0.,4.8,0.,4.8,,0,0.,4.8,0.,4.8
1979-07-20 00:23:08.510 ,0,1,,0,0.,4.8,0.,4.8,,0,0.,4.8,0.,4.8
1979-07-20 00:23:13.310 ,4,1,,0,0.,4.8,0.,4.8,,0,0.,4.8,0.,4.8
1979-07-20 00:23:18.110 ,4,1,,0,0.,4.8,0.,4.8,,0,0.,4.8,1.,4.8
1979-07-20 00:23:22.910 ,4,1,,0,0.,4.8,0.,4.8,,0,0.,4.8,0.,4.8
1979-07-20 00:23:27.710 ,4,1,,0,14.,4.8,4.,4.8,,0,0.,4.8,4.,4.8
1979-07-20 00:23:32.510 ,4,1,,0,4.,4.8,0.,4.8,,0,0.,4.8,0.,4.8
1979-07-20 00:23:37.310 ,7,1,,0,5.,4.8,0.,4.8,,0,1.,4.8,0.,4.8
1979-07-20 00:23:42.110 ,7,1,,0,3.,4.8,0.,4.8,,0,0.,4.8,0.,4.8
1979-07-20 00:23:46.910 ,7,1,,0,3.,4.8,0.,4.8,,0,0.,4.8,0.,4.8
1979-07-20 00:23:51.710 ,7,1,,0,0.,4.8,0.,4.8,,0,0.,4.8,0.,4.8
1979-07-20 00:23:56.510 ,7,1,,0,0.,4.8,0.,4.8,,0,0.,4.8,0.,4.8
1979-07-20 00:24:01.310 ,3,1,,0,0.,4.8,0.,4.8,,0,0.,4.8,0.,4.8
1979-07-20 00:24:06.110 ,3,1,,0,0.,4.8,0.,4.8,,0,0.,4.8,0.,4.8
1979-07-20 00:24:10.910 ,3,1,,0,1.,4.8,0.,4.8,,0,0.,4.8,0.,4.8
1979-07-20 00:24:15.710 ,3,1,,0,6.,4.8,0.,4.8,,0,0.,4.8,0.,4.8
1979-07-20 00:24:20.510 ,3,1,,0,11.,4.8,0.,4.8,,0,0.,4.8,2.,4.8
1979-07-20 00:24:25.310 ,0,1,,0,9.,4.8,0.,4.8,,0,0.,4.8,1.,4.8
1979-07-20 00:24:30.110 ,0,1,,0,3.,4.8,0.,4.8,,0,0.,4.8,0.,4.8
1979-07-20 00:24:34.910 ,0,1,,0,2.,4.8,0.,4.8,,0,0.,4.8,0.,4.8
1979-07-20 00:24:39.710 ,0,1,,0,0.,4.8,0.,4.8,,0,0.,4.8,0.,4.8
1979-07-20 00:24:44.510 ,0,1,,0,0.,4.8,0.,4.8,,0,0.,4.8,0.,4.8
1979-07-20 00:24:49.310 ,4,1,,0,0.,4.8,0.,4.8,,0,0.,4.8,0.,4.8
1979-07-20 00:24:54.110 ,4,1,,0,0.,4.8,0.,4.8,,0,0.,4.8,0.,4.8
1979-07-20 00:24:58.910 ,4,1,,0,2.,4.8,0.,4.8,,0,0.,4.8,1.,4.8
1979-07-20 00:25:03.710 ,4,1,,0,5.,4.8,0.,4.8,,0,0.,4.8,1.,4.8
1979-07-20 00:25:08.510 ,4,1,,0,2.,4.8,0.,4.8,,0,0.,4.8,0.,4.8
1979-07-20 00:25:13.310 ,7,1,,0,1.,4.8,0.,4.8,,0,0.,4.8,0.,4.8
1979-07-20 00:25:18.110 ,7,1,,0,2.,4.8,0.,4.8,,0,0.,4.8,0.,4.8
1979-07-20 00:25:22.910 ,7,1,,0,2.,4.8,0.,4.8,,0,0.,4.8,0.,4.8
1979-07-20 00:25:27.710 ,7,1,,0,0.,4.8,0.,4.8,,0,0.,4.8,0.,4.8
1979-07-20 00:25:32.510 ,7,1,,0,0.,4.8,0.,4.8,,0,0.,4.8,0.,4.8
1979-07-20 00:25:37.310 ,3,1,,0,0.,4.8,0.,4.8,,0,0.,4.8,1.,4.8
1979-07-20 00:25:42.110 ,3,1,,0,0.,4.8,0.,4.8,,0,0.,4.8,0.,4.8
1979-07-20 00:25:46.910 ,3,1,,0,1.,4.8,0.,4.8,,0,0.,4.8,0.,4.8
1979-07-20 00:25:51.710 ,3,1,,0,2.,4.8,0.,4.8,,0,0.,4.8,0.,4.8
1979-07-20 00:25:56.510 ,3,1,,0,6.,4.8,0.,4.8,,0,0.,4.8,2.,4.8
1979-07-20 00:26:01.310 ,0,1,,0,6.,4.8,1.,4.8,,0,0.,4.8,2.,4.8
1979-07-20 00:26:06.110 ,0,1,,0,5.,4.8,0.,4.8,,0,0.,4.8,0.,4.8
1979-07-20 00:26:10.910 ,0,1,,0,2.,4.8,0.,4.8,,0,0.,4.8,0.,4.8
1979-07-20 00:26:15.710 ,0,1,,0,0.,4.8,0.,4.8,,0,0.,4.8,0.,4.8
1979-07-20 00:26:20.510 ,0,1,,0,1.,4.8,0.,4.8,,0,0.,4.8,0.,4.8
1979-07-20 00:26:25.310 ,4,1,,0,0.,4.8,0.,4.8,,0,0.,4.8,0.,4.8
1979-07-20 00:26:30.110 ,4,1,,0,0.,4.8,0.,4.8,,0,0.,4.8,0.,4.8
1979-07-20 00:26:34.910 ,4,1,,0,0.,4.8,0.,4.8,,0,0.,4.8,0.,4.8
1979-07-20 00:26:39.710 ,4,1,,0,8.,4.8,2.,4.8,,0,0.,4.8,2.,4.8
1979-07-20 00:26:44.510 ,4,1,,0,3.,4.8,0.,4.8,,0,0.,4.8,0.,4.8
1979-07-20 00:26:49.310 ,7,1,,0,3.,4.8,0.,4.8,,0,0.,4.8,0.,4.8
1979-07-20 00:26:54.110 ,7,1,,0,2.,4.8,0.,4.8,,0,0.,4.8,0.,4.8
1979-07-20 00:26:58.910 ,7,1,,0,4.,4.8,0.,4.8,,0,0.,4.8,0.,4.8
1979-07-20 00:27:03.710 ,7,1,,0,0.,4.8,0.,4.8,,0,0.,4.8,0.,4.8
1979-07-20 00:27:08.510 ,7,1,,0,0.,4.8,0.,4.8,,0,0.,4.8,1.,4.8
1979-07-20 00:27:13.310 ,3,1,,0,0.,4.8,0.,4.8,,0,0.,4.8,0.,4.8
1979-07-20 00:27:18.110 ,3,1,,0,0.,4.8,0.,4.8,,0,0.,4.8,0.,4.8
1979-07-20 00:27:22.910 ,3,1,,0,1.,4.8,0.,4.8,,0,0.,4.8,0.,4.8
1979-07-20 00:27:27.710 ,3,1,,0,4.,4.8,0.,4.8,,0,0.,4.8,0.,4.8
1979-07-20 00:27:32.510 ,3,1,,0,12.,4.8,2.,4.8,,0,0.,4.8,1.,4.8
1979-07-20 00:27:37.310 ,0,1,,0,5.,4.8,0.,4.8,,0,0.,4.8,2.,4.8
1979-07-20 00:27:42.110 ,0,1,,0,4.,4.8,1.,4.8,,0,0.,4.8,2.,4.8
1979-07-20 00:27:46.910 ,0,1,,0,7.,4.8,1.,4.8,,0,0.,4.8,0.,4.8
1979-07-20 00:27:51.710 ,0,1,,0,0.,4.8,0.,4.8,,0,0.,4.8,0.,4.8
1979-07-20 00:27:56.510 ,0,1,,0,0.,4.8,0.,4.8,,0,0.,4.8,0.,4.8
1979-07-20 00:28:01.310 ,4,1,,0,0.,4.8,0.,4.8,,0,0.,4.8,2.,4.8
1979-07-20 00:28:06.110 ,4,1,,0,0.,4.8,0.,4.8,,0,0.,4.8,0.,4.8
1979-07-20 00:28:10.910 ,4,1,,0,2.,4.8,1.,4.8,,0,0.,4.8,0.,4.8
1979-07-20 00:28:15.710 ,4,1,,0,7.,4.8,0.,4.8,,0,0.,4.8,0.,4.8
1979-07-20 00:28:20.510 ,4,1,,0,6.,4.8,0.,4.8,,0,0.,4.8,0.,4.8
1979-07-20 00:28:25.310 ,7,1,,0,2.,4.8,0.,4.8,,0,0.,4.8,0.,4.8
1979-07-20 00:28:30.110 ,7,1,,0,2.,4.8,0.,4.8,,0,0.,4.8,0.,4.8
1979-07-20 00:28:34.910 ,7,1,,0,3.,4.8,0.,4.8,,0,0.,4.8,0.,4.8
1979-07-20 00:28:39.710 ,7,1,,0,0.,4.8,0.,4.8,,0,0.,4.8,0.,4.8
1979-07-20 00:28:44.510 ,7,1,,0,0.,4.8,0.,4.8,,0,0.,4.8,1.,4.8
1979-07-20 00:28:49.310 ,3,1,,0,0.,4.8,0.,4.8,,0,0.,4.8,0.,4.8
1979-07-20 00:28:54.110 ,3,1,,0,0.,4.8,0.,4.8,,0,0.,4.8,0.,4.8
1979-07-20 00:28:58.910 ,3,1,,0,1.,4.8,0.,4.8,,0,0.,4.8,0.,4.8
1979-07-20 00:29:03.710 ,3,1,,0,4.,4.8,0.,4.8,,0,0.,4.8,0.,4.8
1979-07-20 00:29:08.510 ,3,1,,0,8.,4.8,0.,4.8,,0,0.,4.8,0.,4.8
1979-07-20 00:29:13.310 ,0,1,,0,5.,4.8,1.,4.8,,0,0.,4.8,0.,4.8
1979-07-20 00:29:18.110 ,0,1,,0,3.,4.8,0.,4.8,,0,0.,4.8,0.,4.8
1979-07-20 00:29:22.910 ,0,1,,0,2.,4.8,0.,4.8,,0,0.,4.8,0.,4.8
1979-07-20 00:29:27.710 ,0,1,,0,0.,4.8,0.,4.8,,0,0.,4.8,0.,4.8
1979-07-20 00:29:32.510 ,0,1,,0,0.,4.8,0.,4.8,,0,0.,4.8,0.,4.8
1979-07-20 00:29:37.310 ,0,0,,0,0.,4.8,0.,4.8,,0,0.,4.8,0.,4.8
1979-07-20 00:29:42.110 ,0,0,,0,0.,4.8,0.,4.8,,0,0.,4.8,0.,4.8
1979-07-20 00:29:46.910 ,0,0,,0,1.,4.8,0.,4.8,,0,0.,4.8,3.,4.8
1979-07-20 00:29:51.710 ,0,0,,0,6.,4.8,2.,4.8,,0,0.,4.8,0.,4.8
1979-07-20 00:29:56.510 ,0,0,,0,0.,4.8,0.,4.8,,0,0.,4.8,0.,4.8
1979-07-20 00:30:01.310 ,0,0,,0,2.,4.8,0.,4.8,,0,0.,4.8,0.,4.8
1979-07-20 00:30:06.110 ,0,0,,0,2.,4.8,0.,4.8,,0,0.,4.8,0.,4.8